Regional Weather Roundup
Issued by NWS Wakefield, VA

Home | Current Version | Previous Version | Graphics & Text | Print | Product List | Glossary On
Versions: 1 2 3 4 5 6 7 8 9 10 11 12 13 14 15 16 17 18 19 20 21 22 23 24 25 26 27 28 29 30 31 32 33 34 35 36 37 38 39 40 41 42 43 44 45 46 47 48 49 50
000
ASUS41 KAKQ 021014
RWRAKQ

REGIONAL WEATHER ROUNDUP
NATIONAL WEATHER SERVICE WAKEFIELD VA
600 AM EDT WED SEP 02 2015

Note: "fair" indicates few or no clouds below 12,000 feet with no
significant weather and/or obstructions to visibility. * = Denotes
station may not report precipitation (e.g., rain,snow,etc.),
thunder or fog.

VAZ042-051-052>054-056-021100-
NORTHERN VIRGINIA

CITY           SKY/WX    TMP DP  RH WIND       PRES   REMARKS
WASH NATIONAL  CLOUDY    76  73  91 CALM      30.03S
DULLES         MOCLDY    72  66  81 NW3       30.05R
FORT BELVOIR   MOCLDY    70  69  96 CALM      30.03S FOG
QUANTICO       MOCLDY    73  68  84 NW6       30.04R
FREDERICKSBRG* MOCLDY    73  73 100 CALM      30.03R
STAFFORD*      MOCLDY    68  67  95 CALM      30.07S FOG
WARRENTON      MOCLDY    67  67 100 CALM      30.04S FOG
CULPEPER*      MOCLDY    68  68  99 CALM      30.06R FOG
MANASSAS*      MOCLDY    70  70 100 CALM      30.04S
LEESBURG*      MOCLDY    70  70 100 W6        30.06S
WINCHESTER     PTCLDY    68  64  88 CALM      30.07S
FRONT ROYAL*   FAIR      70  66  88 CALM      30.07R
LURAY*         FAIR      70  68  94 S3        30.09R
$$

VAZ048-049-060>072-079>083-021100-
CENTRAL AND SOUTH CENTRAL VIRGINIA

CITY           SKY/WX    TMP DP  RH WIND       PRES   REMARKS
RICHMOND       MOCLDY    73  68  84 CALM      30.04S
CHESTERFIELD*  CLOUDY    73  61  64 CALM      30.06S
PETERSBURG*    MOCLDY    69  69 100 CALM      30.06R FOG
HANOVER        MOCLDY    71  69  93 CALM      30.05S FOG
TAPPAHANNOCK*  MOCLDY    70  67  89 CALM      30.04S FOG
QUINTON*       FAIR      69  68  98 CALM      30.04S
CHARLOTTSVILLE MOCLDY    72  69  90 CALM      30.06R FOG
GORDONSVILLE*  FAIR      69  68  98 CALM      30.05R FOG
ORANGE*        CLOUDY    72  70  94 CALM      30.06S
LOUISA*        CLOUDY    70  66  88 CALM      30.05R FOG
BUMPASS*       CLOUDY    71  69  95 CALM      30.04S
FARMVILLE*     CLOUDY    71  71 100 CALM      30.05R
CREWE*         PTSUNNY  N/A N/A N/A CALM      30.05S
FORT PICKETT*  FAIR      69  68  97 SW6       30.05S
CHASE CITY*    FAIR      71  71 100 CALM      30.07R
CLARKSVILLE*   PTSUNNY   70  70 100 CALM      30.06R
SOUTH HILL*    PTCLDY    69  68  98 CALM      30.11S
LAWRENCEVILLE* CLOUDY    68  68 100 CALM      30.06R
EMPORIA*       FOG       64  64 100 CALM      30.07R VSB 3/4
$$

VAZ088>098-021100-
SOUTHEAST VIRGINIA

CITY           SKY/WX    TMP DP  RH WIND       PRES   REMARKS
NORFOLK        PTCLDY    73  70  90 SW5       30.04R
VIRGINIA BEACH PTCLDY    76  70  82 CALM      30.03S
NORFOLK NAVAL  MOCLDY    72  70  93 SW5       30.05S
WEST POINT*    MOCLDY    71  68  91 CALM      30.05S
SALUDA*        FAIR      71  70  96 CALM      30.03S
NEWPORT NEWS   PTCLDY    73  70  90 CALM      30.04S
LANGLEY AFB    PTCLDY    73  71  92 W2        30.03S
FORT EUSTIS    PTCLDY    72 N/A N/A CALM      30.02S
WILLIAMSBURG*  PTCLDY    73  73 100 CALM      30.05S
HR EXEC AP*      N/A     64  63  94 CALM      30.06S
FRANKLIN*      CLEAR     67  66  97 CALM      30.05S
WAKEFIELD      CLEAR     69  67  93 CALM      30.04S FOG
$$

VAZ020-022-025-037-045-021100-
WEST CENTRAL AND SOUTHWEST VIRGINIA

CITY           SKY/WX    TMP DP  RH WIND       PRES   REMARKS
STAUNTON*      MOCLDY    71  68  90 CALM      30.12F
WAYNESBORO*    FAIR      69  66  89 CALM      30.12S
HOT SPRINGS VA MOCLDY    67  65  93 N5        30.24S
LYNCHBURG      MOCLDY    69  67  93 CALM      30.09S
DANVILLE       PTCLDY    70  68  93 SW3       30.08R
SOUTH BOSTON*  CLOUDY    69  68  96 CALM      30.07R
MARTINSVILLE   CLEAR     66  66 100 CALM      30.13R FOG
ROANOKE        MOCLDY    70  66  87 N5        30.13S
BLACKSBURG       N/A     64  64 100 CALM      30.21R FOG
DUBLIN*        CLOUDY    64  64 100 CALM      30.19S
MARION*        CLEAR     62  61  96 CALM      30.23S FOG
HILLSVILLE*    CLEAR     64  64  99 CALM      30.19S FOG
RICHLANDS*     FAIR      67  37  32 CALM      30.21S
WISE*          CLEAR     66  64  94 CALM      30.22S
ABINGDON*      CLEAR     66  64  95 E3        30.18S
$$

MDZ021>025-VAZ099-100-021100-
SOUTHERN MARYLAND AND THE DELMARVA PENINSULA

CITY           SKY/WX    TMP DP  RH WIND       PRES   REMARKS
PATUXENT RIVER MOCLDY    73  69  87 W3        30.02S
BAY BRIDGE APT   N/A     73  73 100 E3        30.02S FOG
LEONARDTOWN    NOT AVBL
DOVER          PTCLDY    70  70 100 NW2       30.01R
GEORGETOWN     PTCLDY    70  69  97 CALM      30.03R
EASTON         CLOUDY    73  73 100 CALM      30.06
CAMBRIDGE      MOCLDY    72  68  88 CALM      30.02S
SALISBURY      PTCLDY    70  68  93 CALM      30.02S
OCEAN CITY     MOCLDY    74  71  91 W5        30.02S
WALLOPS ISLAND MOCLDY    72  71  97 CALM      30.03S
ACCOMACK*      FOG       68  68 100 SW3       30.03S VSB 3/4
$$

NCZ012>017-030>032-021100-
NORTH CENTRAL AND EASTERN NORTH CAROLINA

CITY           SKY/WX    TMP DP  RH WIND       PRES   REMARKS
ROANOKE RAPIDS FAIR      66  64  94 CALM      30.05S FOG
RALEIGH        PTCLDY    69  67  93 CALM      30.07S
ELIZABETH CITY FOG       70  69  97 W3        30.04S VSB 1
AHOSKIE*       CLEAR     66  65  97 CALM      30.05S
EDENTON*       MOCLDY    68  67  95 CALM      30.05S
CURRITUCK*     CLEAR     71  69  93 CALM      30.05S
KILL DEVIL HLS PTCLDY    74  72  93 CALM      30.04R FOG
MANTEO         PTCLDY    74  74  99 W3        30.05S
CAPE HATTERAS  PTCLDY    78  74  87 NW6       30.04R
TARBORO*       FAIR      66  65  97 CALM      30.06S
GOLDSBORO      CLEAR     70  70  99 CALM      30.04S
WASHINGTON       N/A     68  67  98 CALM      30.05S FOG
GREENVILLE     FOG       70  68  94 CALM      30.07R VSB 3/4
NEW BERN       CLEAR     72  71  97 CALM      30.06S
WILMINGTON     CLEAR     74  72  93 SW5       30.06R
$$

VAZ048-021100-
ELSEWHERE

CITY           SKY/WX    TMP DP  RH WIND       PRES   REMARKS
HARRISBURG PA  MOCLDY    69  66  90 CALM      30.04R
BALTIMORE      MOCLDY    71  68  90 CALM      30.03R
ANNAPOLIS      PTCLDY    76  74  93 CALM      30.02R FOG
ANDREWS AFB    MOCLDY    69  68  96 CALM      30.03R
PHILADELPHIA   PTCLDY    74  69  85 NW3       30.03S FOG
HENDERSON NC   CLEAR     70  67  90 S3        30.07R
GREENSBORO     PTCLDY    72  66  81 CALM      30.09R
ROCKY MOUNT    CLEAR     68  67  96 CALM      30.06R FOG
$$

VAZ100-021100-
MARINE

STATION/POSITION TIME  TEMP    WIND        PRES    WAVE   SWELL
                       AIR SEA DIR/SP/G            HT/PER HT/PER
                 (UTC) (F)     (DEG/KT/KT) (MB)    (FT/S) (FT/S)
BRANDYWINE LGT   0900   75 76  320/  3/  4 1016.7R
CAPE MAY NJ      0900   71 80  100/  2/  2 1016.1R
LEWES DE         0900   75 76  300/  2/  2 1016.4R
15NM E FENWICK I 0950   78 78  180/  6/  6 1016.8R   2/ 7   2/ 7
OCEAN-CITY-INLET 0900   76 77  290/  6/  9 1015.5R
GOOSES REEF MD   1000   78 80  260/  4/  4 1017.5S
COVE POINT MD    0900   77     270/  2/  3 1017.2R
SOLOMONS ISLAND  0900      81                N/A
BISHOPS HEAD MD  0900   80 80  240/  8/  9 1015.6F
PINEY POINT MD   0905          320/  5/  6   N/A
POTOMAC MD       1000   78 80  290/  6/  8 1015.5S
CAMBRIDGE MD     0900   75 81  210/  4/  5 1015.6S
LEWISETTA VA     0900   77 80  260/  7/  9 1016.1F
RAPPAHANNOCK LGT 0900          230/  6/  7 1017.3S
STINGRAY PT      1000   78 80  270/  6/  6 1017.2S   0
YORK RVR RNG VA  0900   78     260/  6/  7 1016.3S
YORKTOWN VA      0900   75 80  250/  2/  4 1016.6S
JAMESTOWN VA     1000   75 81  260/  2/  4   N/A
DOMINION TERM VA 0900   76     290/  5/  5 1016.9F
KIPTOPEKE VA     0900      80  260/  6/  7   N/A
CHES BAY BRIDGE  0900   76 79  220/  7/  7 1016.5F
CAPE HENRY VA    0900   74     230/  5/  6   N/A
CHESAPEAKE LGHT  0900   76     270/  5/  5 1017.8S
WILLOUBY STN VA  0900   77     310/  3/  5 1017.8F
CAPE HENRY BUOY  0928      79                N/A     1/ 7
1ST LANDING BUOY 1000      79              1016.9R   1
CAPE CHARLES BUO 0926      79                N/A     1/ 9   2/ 9
OFFSHORE WE BUOY 0911      79                N/A     2/ 7   2/ 7
64NM E OF VA BCH 0950   77 78  310/  6/  8 1016.8R   2/10   2/10
DUCK PIER NC     0900   77 79  280/  5/  6 1016.3S
44100 DUCK FRF   0924      79                N/A     2/ 9
44056 DUCK FRF   0911      80                N/A     1/ 9
OREGON INLET NC  0900   76 81  290/  3/  4 1016.9S
HATTERAS NC      0900   80 82  280/  9/ 10 1016.9R
DIAMOND SHLS NC  0950   80 83  310/ 10/ 12 1017.3R   2/ 9   2/ 9
CAPE LOOKOUT NC  1000   78     300/ 11/ 12 1017.2R
$$



USA.gov is the U.S. government's official web portal to all federal, state and local government web resources and services.